User: anonymous   Login
Location: Strawberry
(45.6646°N, 111.9596°W)
Time: 16:56:50
(UTC+00:00)
Language:

BEESAT 3 - Orbit

View from above orbital plane
View from above orbital plane
View from above satellite
View from above satellite

Ground track
Ground track

The orbit data is extracted from the following two-line orbital elements,

1 39134U 13015E   22333.18319849  .00022059  00000-0  65066-3 0  9990
2 39134  64.8587 239.2562 0030583 256.1119 103.6613 15.34548601532077
Epoch (UTC): 29 November 2022 04:23:48
Eccentricity: 0.0030583
inclination: 64.8587°
perigee height: 441 km
apogee height: 483 km
right ascension of ascending node: 239.2562°
argument of perigee: 256.1119°
revolutions per day: 15.34548601
mean anomaly at epoch: 103.6613°
orbit number at epoch: 53207

The dashed part of the orbit path shows where the satellite is in the earth's shadow,  

DLR